Back to catalog

KAZSAT 2

AliveCommunicationsGEO
NORAD 37749·PAYLOAD·🇰🇿 Kazakhstan

Launched Jul 15, 2011 from Baikonur Cosmodrome

Loading…

TLE

FreshSource: Space-Track

Epoch: Sep 14, 2026, 14:12 UTC

1 37749U 11035B   26257.59226109 -.00000206  00000-0  00000-0 0  9995
2 37749   0.0195  72.2973 0001043 158.4787  62.5291  1.00273161 54291

Track KAZSAT 2 in real time with AllMySat

Download on the App Store